H1 CPF 2 NER 2021 3 27 9 086 01 glonass122 H2 1004103 9122 37139 2021 3 27 0 0 0 2021 3 30 23 45 0 900 1 1 0 0 0 1 H9 10 0 59300 0.00000 0 -8353081.026 -24173039.277 407171.148 10 0 59300 900.00000 0 -8420116.885 -23996141.910 -2776639.466 10 0 59300 1800.00000 0 -8314274.360 -23462248.937 -5906972.879 10 0 59300 2700.00000 0 -7992455.094 -22605002.261 -8923556.407 10 0 59300 3600.00000 0 -7419842.573 -21467934.921 -11768303.194 10 0 59300 4500.00000 0 -6571604.713 -20102624.628 -14386402.792 10 0 59300 5400.00000 0 -5434188.897 -18566535.918 -16727352.221 10 0 59300 6300.00000 0 -4006155.191 -16920638.386 -18745910.001 10 0 59300 7200.00000 0 -2298511.951 -15226897.570 -20402956.657 10 0 59300 8100.00000 0 -334537.608 -13545740.137 -21666246.567 10 0 59300 9000.00000 0 1850907.189 -11933596.405 -22511037.396 10 0 59300 9900.00000 0 4212552.434 -10440620.632 -22920584.909 10 0 59300 10800.00000 0 6696332.414 -9108682.882 -22886492.754 10 0 59300 11700.00000 0 9241377.765 -7969716.038 -22408908.785 10 0 59300 12600.00000 0 11782307.370 -7044487.823 -21496561.686 10 0 59300 13500.00000 0 14251728.514 -6341850.867 -20166634.206 10 0 59300 14400.00000 0 16582843.834 -5858504.701 -18444472.060 10 0 59300 15300.00000 0 18712057.747 -5579282.555 -16363130.694 10 0 59300 16200.00000 0 20581473.622 -5477953.798 -13962765.413 10 0 59300 17100.00000 0 22141176.040 -5518510.768 -11289873.894 10 0 59300 18000.00000 0 23351200.131 -5656887.559 -8396403.799 10 0 59300 18900.00000 0 24183102.336 -5843038.857 -5338741.778 10 0 59300 19800.00000 0 24621063.135 -6023290.381 -2176603.461 10 0 59300 20700.00000 0 24662472.110 -6142859.654 1028152.725 10 0 59300 21600.00000 0 24317968.066 -6148437.307 4212762.755 10 0 59300 22500.00000 0 23610930.899 -5990715.691 7314818.173 10 0 59300 23400.00000 0 22576446.246 -5626753.319 10273523.094 10 0 59300 24300.00000 0 21259787.543 -5022070.603 13030918.867 10 0 59300 25200.00000 0 19714481.582 -4152384.197 15533048.986 10 0 59300 26100.00000 0 18000042.212 -3004903.513 17731038.337 10 0 59300 27000.00000 0 16179471.203 -1579132.585 19582063.437 10 0 59300 27900.00000 0 14316635.032 112857.416 21050193.315 10 0 59300 28800.00000 0 12473631.122 2046696.037 22107084.155 10 0 59300 29700.00000 0 10708256.427 4186509.214 22732514.815 10 0 59300 30600.00000 0 9071685.705 6486207.266 22914754.290 10 0 59300 31500.00000 0 7606456.623 8891208.790 22650756.203 10 0 59300 32400.00000 0 6344844.462 11340525.934 21946179.346 10 0 59300 33300.00000 0 5307691.620 13769122.015 20815236.921 10 0 59300 34200.00000 0 4503737.116 16110441.731 19280380.525 10 0 59300 35100.00000 0 3929469.699 18299008.153 17371827.948 10 0 59300 36000.00000 0 3569506.084 20272978.996 15126946.454 10 0 59300 36900.00000 0 3397474.059 21976557.264 12589505.580 10 0 59300 37800.00000 0 3377359.644 23362158.447 9808815.319 10 0 59300 38700.00000 0 3465258.865 24392247.176 6838767.052 10 0 59300 39600.00000 0 3611458.812 25040770.270 3736795.913 10 0 59300 40500.00000 0 3762759.912 25294130.020 562783.973 10 0 59300 41400.00000 0 3864942.237 25151660.328 -2622075.836 10 0 59300 42300.00000 0 3865273.542 24625588.380 -5756434.786 10 0 59300 43200.00000 0 3714955.521 23740485.179 -8779942.367 10 0 59300 44100.00000 0 3371407.710 22532228.489 -11634379.445 10 0 59300 45000.00000 0 2800295.159 21046521.018 -14264751.269 10 0 59300 45900.00000 0 1977216.389 19337024.189 -16620321.836 10 0 59300 46800.00000 0 888981.563 17463182.957 -18655572.076 10 0 59300 47700.00000 0 -465572.904 15487829.460 -20331065.282 10 0 59300 48600.00000 0 -2075268.846 13474662.118 -21614204.615 10 0 59300 49500.00000 0 -3916785.780 11485702.053 -22479868.837 10 0 59300 50400.00000 0 -5955370.513 9578830.126 -22910913.955 10 0 59300 51300.00000 0 -8146031.684 7805505.168 -22898530.318 10 0 59300 52200.00000 0 -10435174.209 6208757.422 -22442446.595 10 0 59300 53100.00000 0 -12762610.089 4821540.904 -21550974.312 10 0 59300 54000.00000 0 -15063866.016 3665514.436 -20240889.108 10 0 59300 54900.00000 0 -17272694.844 2750304.157 -18537147.650 10 0 59300 55800.00000 0 -19323688.167 2073280.909 -16472442.222 10 0 59300 56700.00000 0 -21154881.628 1619864.541 -14086598.333 10 0 59300 57600.00000 0 -22710243.277 1364344.936 -11425824.175 10 0 59300 58500.00000 0 -23941938.730 1271187.271 -8541824.479 10 0 59300 59400.00000 0 -24812275.172 1296767.602 -5490794.856 10 0 59300 60300.00000 0 -25295238.973 1391465.457 -2332316.089 10 0 59300 61200.00000 0 -25377558.542 1502023.719 871828.941 10 0 59300 62100.00000 0 -25059244.409 1574073.392 4058890.625 10 0 59300 63000.00000 0 -24353581.302 1554712.805 7166413.318 10 0 59300 63900.00000 0 -23286571.215 1395027.844 10133493.220 10 0 59300 64800.00000 0 -21895850.955 1052441.975 12902005.292 10 0 59300 65700.00000 0 -20229131.023 492792.346 15417771.685 10 0 59300 66600.00000 0 -18342224.032 -307959.450 17631645.736 10 0 59300 67500.00000 0 -16296748.766 -1362456.909 19500488.002 10 0 59300 68400.00000 0 -14157609.884 -2671173.525 20988013.849 10 0 59300 69300.00000 0 -11990362.482 -4222165.961 22065495.557 10 0 59300 70200.00000 0 -9858574.758 -5991364.960 22712305.840 10 0 59300 71100.00000 0 -7821300.960 -7943390.049 22916293.658 10 0 59300 72000.00000 0 -5930770.911 -10032851.393 22673987.226 10 0 59300 72900.00000 0 -4230391.759 -12206081.783 21990623.016 10 0 59300 73800.00000 0 -2753143.203 -14403223.925 20880003.266 10 0 59300 74700.00000 0 -1520429.898 -16560583.919 19364187.843 10 0 59300 75600.00000 0 -541434.691 -18613151.639 17473029.400 10 0 59300 76500.00000 0 187005.002 -20497182.766 15243563.383 10 0 59300 77400.00000 0 679997.214 -22152735.619 12719266.814 10 0 59300 78300.00000 0 963693.000 -23526058.871 9949201.626 10 0 59300 79200.00000 0 1073923.022 -24571733.144 6987059.892 10 0 59300 80100.00000 0 1054432.935 -25254480.253 3890129.537 10 0 59300 81000.00000 0 954793.154 -25550567.926 718199.914 10 0 59300 81900.00000 0 828071.125 -25448754.523 -2467572.849 10 0 59300 82800.00000 0 728363.155 -24950737.005 -5605820.490 10 0 59300 83700.00000 0 708288.008 -24071085.377 -8636117.143 10 0 59300 84600.00000 0 816545.521 -22836667.294 -11500113.979 10 0 59300 85500.00000 0 1095640.615 -21285586.736 -14142634.585 10 0 59301 0.00000 0 1579866.231 -19465679.863 -16512712.530 10 0 59301 900.00000 0 2293628.942 -17432628.353 -18564553.793 10 0 59301 1800.00000 0 3250185.680 -15247766.457 -20258406.764 10 0 59301 2700.00000 0 4450847.264 -12975669.132 -21561325.471 10 0 59301 3600.00000 0 5884681.724 -10681618.462 -22447811.482 10 0 59301 4500.00000 0 7528734.186 -8429050.540 -22900322.333 10 0 59301 5400.00000 0 9348757.373 -6277086.348 -22909635.899 10 0 59301 6300.00000 0 11300426.918 -4278247.513 -22475062.030 10 0 59301 7200.00000 0 13330995.336 -2476451.368 -21604494.997 10 0 59301 8100.00000 0 15381320.098 -905369.082 -20314302.817 10 0 59301 9000.00000 0 17388184.921 412783.389 -18629052.165 10 0 59301 9900.00000 0 19286819.914 1467968.870 -16581070.804 10 0 59301 10800.00000 0 21013516.657 2262534.302 -14209852.675 10 0 59301 11700.00000 0 22508228.670 2810886.634 -11561314.287 10 0 59301 12600.00000 0 23717046.756 3138650.552 -8686914.837 10 0 59301 13500.00000 0 24594442.733 3281341.972 -5642655.923 10 0 59301 14400.00000 0 25105183.731 3282612.703 -2487980.214 10 0 59301 15300.00000 0 25225832.629 3192141.038 715408.417 10 0 59301 16200.00000 0 24945767.659 3063259.422 3904778.296 10 0 59301 17100.00000 0 24267675.020 2950422.626 7017630.042 10 0 59301 18000.00000 0 23207491.488 2906627.501 9992955.219 10 0 59301 18900.00000 0 21793798.484 2980897.955 12772465.382 10 0 59301 19800.00000 0 20066693.413 3215946.000 15301763.990 10 0 59301 20700.00000 0 18076187.447 3646111.776 17531435.071 10 0 59301 21600.00000 0 15880199.650 4295672.770 19418025.049 10 0 59301 22500.00000 0 13542234.911 5177595.678 20924897.034 10 0 59301 23400.00000 0 11128846.436 6292784.330 22022940.381 10 0 59301 24300.00000 0 8706992.098 7629854.940 22691122.205 10 0 59301 25200.00000 0 6341397.453 9165446.703 22916871.541 10 0 59301 26100.00000 0 4092036.815 10865052.401 22696290.847 10 0 59301 27000.00000 0 2011837.353 12684331.539 22034193.489 10 0 59301 27900.00000 0 144700.421 14570848.359 20943969.509 10 0 59301 28800.00000 0 -1476080.075 16466159.556 19447285.408 10 0 59301 29700.00000 0 -2828940.191 18308162.722 17573626.710 10 0 59301 30600.00000 0 -3904667.087 20033606.551 15359694.763 10 0 59301 31500.00000 0 -4706497.612 21580657.993 12848671.564 10 0 59301 32400.00000 0 -5249695.016 22891420.287 10089368.338 10 0 59301 33300.00000 0 -5560625.688 23914298.662 7135275.097 10 0 59301 34200.00000 0 -5675377.904 24606117.464 4043529.755 10 0 59301 35100.00000 0 -5637982.802 24933903.304 873826.140 10 0 59301 36000.00000 0 -5498313.348 24876262.726 -2312719.204 10 0 59301 36900.00000 0 -5309749.415 24424299.550 -5454721.175 10 0 59301 37800.00000 0 -5126706.026 23582035.742 -8491681.117 10 0 59301 38700.00000 0 -5002126.838 22366319.415 -11365122.887 10 0 59301 39600.00000 0 -4985045.916 20806224.084 -14019690.564 10 0 59301 40500.00000 0 -5118318.000 18941963.337 -16404189.266 10 0 59301 41400.00000 0 -5436610.681 16823364.208 -18472551.453 10 0 59301 42300.00000 0 -5964741.526 14507960.109 -20184712.019 10 0 59301 43200.00000 0 -6716429.691 12058779.227 -21507376.905 10 0 59301 44100.00000 0 -7693515.266 9541916.626 -22414671.228 10 0 59301 45000.00000 0 -8885681.115 7023987.410 -22888654.483 10 0 59301 45900.00000 0 -10270692.049 4569563.511 -22919692.151 10 0 59301 46800.00000 0 -11815145.297 2238698.120 -22506674.958 10 0 59301 47700.00000 0 -13475705.358 84639.247 -21657079.220 10 0 59301 48600.00000 0 -15200776.069 -1848172.953 -20386864.173 10 0 59301 49500.00000 0 -16932544.089 -3525741.026 -18720204.932 10 0 59301 50400.00000 0 -18609311.465 -4925707.400 -16689062.786 10 0 59301 51300.00000 0 -20168021.675 -6038061.643 -14332597.815 10 0 59301 52200.00000 0 -21546873.906 -6865325.621 -11696432.327 10 0 59301 53100.00000 0 -22687915.034 -7422206.256 -8831777.299 10 0 59301 54000.00000 0 -23539498.224 -7734728.517 -5794437.557 10 0 59301 54900.00000 0 -24058501.540 -7838884.042 -2643714.865 10 0 59301 55800.00000 0 -24212209.183 -7778852.373 558768.677 10 0 59301 56700.00000 0 -23979772.045 -7604871.187 3750302.081 10 0 59301 57600.00000 0 -23353182.174 -7370848.069 6868344.909 10 0 59301 58500.00000 0 -22337717.064 -7131818.296 9851786.682 10 0 59301 59400.00000 0 -20951833.117 -6941360.389 12642178.012 10 0 59301 60300.00000 0 -19226512.114 -6849083.188 15184905.919 10 0 59301 61200.00000 0 -17204088.937 -6898294.925 17430287.111 10 0 59301 62100.00000 0 -14936611.666 -7123956.356 19334555.513 10 0 59301 63000.00000 0 -12483805.540 -7551006.976 20860723.215 10 0 59301 63900.00000 0 -9910729.349 -8193136.234 21979297.422 10 0 59301 64800.00000 0 -7285225.404 -9052051.631 22668839.965 10 0 59301 65700.00000 0 -4675272.224 -10117273.413 22916359.826 10 0 59301 66600.00000 0 -2146352.253 -11366462.399 22717533.184 10 0 59301 67500.00000 0 241055.147 -12766264.508 22076749.428 10 0 59301 68400.00000 0 2433751.746 -14273633.622 21006985.256 10 0 59301 69300.00000 0 4387776.688 -15837574.505 19529512.419 10 0 59301 70200.00000 0 6069962.711 -17401230.436 17673447.746 10 0 59301 71100.00000 0 7459031.719 -18904226.610 15475156.737 10 0 59301 72000.00000 0 8546188.609 -20285170.560 12977524.469 10 0 59301 72900.00000 0 9335193.471 -21484205.309 10229109.407 10 0 59301 73800.00000 0 9841913.701 -22445509.769 7283197.320 10 0 59301 74700.00000 0 10093378.573 -23119643.795 4196773.821 10 0 59301 75600.00000 0 10126378.894 -23465642.415 1029434.852 10 0 59301 76500.00000 0 9985672.222 -23452774.441 -2157745.025 10 0 59301 77400.00000 0 9721869.546 -23061894.620 -5303366.263 10 0 59301 78300.00000 0 9389091.682 -22286335.034 -8346859.807 10 0 59301 79200.00000 0 9042492.359 -21132300.012 -11229624.534 10 0 59301 80100.00000 0 8735749.933 -19618748.619 -13896127.289 10 0 59301 81000.00000 0 8518630.716 -17776769.126 -16294946.872 10 0 59301 81900.00000 0 8434723.944 -15648469.873 -18379744.338 10 0 59301 82800.00000 0 8519441.616 -13285430.186 -20110142.867 10 0 59301 83700.00000 0 8798366.096 -10746772.419 -21452501.848 10 0 59301 84600.00000 0 9286014.772 -8096931.390 -22380571.152 10 0 59301 85500.00000 0 9985074.682 -5403209.989 -22876013.051 10 0 59302 0.00000 0 10886141.416 -2733218.706 -22928781.055 10 0 59302 900.00000 0 11967976.904 -152302.232 -22537346.746 10 0 59302 1800.00000 0 13198278.219 2278942.213 -21708768.098 10 0 59302 2700.00000 0 14534931.134 4506952.436 -20458594.774 10 0 59302 3600.00000 0 15927698.536 6487200.415 -18810609.184 10 0 59302 4500.00000 0 17320277.468 8185817.779 -16796404.631 10 0 59302 5400.00000 0 18652640.751 9580778.345 -14454805.487 10 0 59302 6300.00000 0 19863566.310 10662585.656 -11831137.648 10 0 59302 7200.00000 0 20893247.750 11434434.039 -8976361.327 10 0 59302 8100.00000 0 21685874.811 11911834.072 -5946081.725 10 0 59302 9000.00000 0 22192072.260 12121716.543 -2799456.606 10 0 59302 9900.00000 0 22371090.668 12101051.890 401976.972 10 0 59302 10800.00000 0 22192652.520 11895043.962 3595532.007 10 0 59302 11700.00000 0 21638371.575 11554976.111 6718630.267 10 0 59302 12600.00000 0 20702681.936 11135803.603 9710062.314 10 0 59302 13500.00000 0 19393234.875 10693597.917 12511220.660 10 0 59302 14400.00000 0 17730745.109 10282955.285 15067278.412 10 0 59302 15300.00000 0 15748292.773 9954483.299 17328287.130 10 0 59302 16200.00000 0 13490111.435 9752475.645 19250170.036 10 0 59302 17100.00000 0 11009915.056 9712876.131 20795589.585 10 0 59302 18000.00000 0 8368836.804 9861619.785 21934671.816 10 0 59302 18900.00000 0 5633068.955 10213421.488 22645573.829 10 0 59302 19800.00000 0 2871305.210 10771062.491 22914884.655 10 0 59302 20700.00000 0 152094.406 11525202.953 22737853.814 10 0 59302 21600.00000 0 -2458783.007 12454725.768 22118445.851 10 0 59302 22500.00000 0 -4900806.522 13527594.090 21069222.767 10 0 59302 23400.00000 0 -7120972.721 14702183.344 19611059.752 10 0 59302 24300.00000 0 -9075726.681 15929028.938 17772702.710 10 0 59302 25200.00000 0 -10732490.876 17152914.121 15590178.748 10 0 59302 26100.00000 0 -12070732.131 18315209.002 13106073.235 10 0 59302 27000.00000 0 -13082526.928 19356362.277 10368688.962 10 0 59302 27900.00000 0 -13772606.126 20218441.786 7431104.496 10 0 59302 28800.00000 0 -14157881.404 20847618.881 4350150.228 10 0 59302 29700.00000 0 -14266476.734 21196494.640 1185321.366 10 0 59302 30600.00000 0 -14136307.873 21226173.017 -2002352.245 10 0 59302 31500.00000 0 -13813270.642 20907996.717 -5151459.215 10 0 59302 32400.00000 0 -13349114.119 20224875.472 -8201362.512 10 0 59302 33300.00000 0 -12799086.993 19172152.921 -11093338.280 10 0 59302 34200.00000 0 -12219454.049 17757976.745 -13771678.144 10 0 59302 35100.00000 0 -11664984.689 16003156.508 -16184736.348 10 0 59302 36000.00000 0 -11186516.349 13940513.842 -18285904.029 10 0 59302 36900.00000 0 -10828692.722 11613749.798 -20034493.846 10 0 59302 37800.00000 0 -10627969.926 9075873.267 -21396519.532 10 0 59302 38700.00000 0 -10610973.315 6387251.915 -22345356.311 10 0 59302 39600.00000 0 -10793273.999 3613362.473 -22862269.518 10 0 59302 40500.00000 0 -11178637.693 822329.644 -22936800.632 10 0 59302 41400.00000 0 -11758779.793 -1917647.938 -22567001.744 10 0 59302 42300.00000 0 -12513640.214 -4540880.666 -21759511.671 10 0 59302 43200.00000 0 -13412170.383 -6986674.483 -20529469.366 10 0 59302 44100.00000 0 -14413603.368 -9201618.300 -18900262.966 10 0 59302 45000.00000 0 -15469157.609 -11141576.548 -16903115.868 10 0 59302 45900.00000 0 -16524105.658 -12773302.318 -14576514.481 10 0 59302 46800.00000 0 -17520122.914 -14075601.385 -11965485.796 10 0 59302 47700.00000 0 -18397818.034 -15039995.635 -9120736.583 10 0 59302 48600.00000 0 -19099337.569 -15670855.417 -6097669.637 10 0 59302 49500.00000 0 -19570932.771 -15984993.001 -2955295.892 10 0 59302 50400.00000 0 -19765376.887 -16010732.818 244935.475 10 0 59302 51300.00000 0 -19644126.822 -15786497.407 3440364.277 10 0 59302 52200.00000 0 -19179133.492 -15358969.749 6568377.267 10 0 59302 53100.00000 0 -18354220.310 -14780911.758 9567668.758 10 0 59302 54000.00000 0 -17165968.168 -14108734.440 12379475.735 10 0 59302 54900.00000 0 -15624067.149 -13399926.305 14948759.777 10 0 59302 55800.00000 0 -13751119.016 -12710452.938 17225309.400 10 0 59302 56700.00000 0 -11581898.904 -12092241.568 19164738.871 10 0 59302 57600.00000 0 -9162108.498 -11590860.143 20729362.340 10 0 59302 58500.00000 0 -6546675.200 -11243491.159 21888925.531 10 0 59302 59400.00000 0 -3797671.192 -11077286.677 22621181.174 10 0 59302 60300.00000 0 -981942.080 -11108173.557 22912298.223 10 0 59302 61200.00000 0 1831453.441 -11340157.669 22757098.979 10 0 59302 62100.00000 0 4573884.543 -11765153.794 22159122.187 10 0 59302 63000.00000 0 7179759.327 -12363345.145 21130513.866 10 0 59302 63900.00000 0 9588997.786 -13104053.851 19691751.086 10 0 59302 64800.00000 0 11749265.676 -13947082.412 17871207.039 10 0 59302 65700.00000 0 13617879.279 -14844466.844 15704568.446 10 0 59302 66600.00000 0 15163305.497 -15742565.665 13234118.792 10 0 59302 67500.00000 0 16366199.222 -16584395.817 10507902.831 10 0 59302 68400.00000 0 17219939.287 -17312117.199 7578789.411 10 0 59302 69300.00000 0 17730644.955 -17869562.331 4503451.045 10 0 59302 70200.00000 0 17916676.087 -18204706.550 1341279.472 10 0 59302 71100.00000 0 17807640.804 -18271977.304 -1846742.926 10 0 59302 72000.00000 0 17442954.038 -18034308.141 -4999195.616 10 0 59302 72900.00000 0 16870008.040 -17464853.690 -8055376.174 10 0 59302 73800.00000 0 16142031.066 -16548295.758 -10956440.433 10 0 59302 74700.00000 0 15315722.563 -15281687.152 -13646507.014 10 0 59302 75600.00000 0 14448761.834 -13674798.256 -16073707.612 10 0 59302 76500.00000 0 13597292.015 -11749951.032 -18191165.211 10 0 59302 77400.00000 0 12813482.193 -9541345.535 -19957883.448 10 0 59302 78300.00000 0 12143267.532 -7093903.991 -21339531.625 10 0 59302 79200.00000 0 11624360.413 -4461676.753 -22309111.214 10 0 59302 80100.00000 0 11284615.211 -1705872.184 -22847491.163 10 0 59302 81000.00000 0 11140815.563 1107412.168 -22943801.114 10 0 59302 81900.00000 0 11197936.397 3909667.108 -22595673.450 10 0 59302 82800.00000 0 11448914.157 6632558.628 -21809327.293 10 0 59302 83700.00000 0 11874938.081 9210519.261 -20599489.951 10 0 59302 84600.00000 0 12446253.983 11583237.665 -18989154.020 10 0 59302 85500.00000 0 13123450.433 13697942.934 -17009171.376 10 0 59303 0.00000 0 13859176.478 15511387.498 -14697688.584 10 0 59303 900.00000 0 14600220.961 16991443.620 -12099431.318 10 0 59303 1800.00000 0 15289867.083 18118244.615 -9264850.373 10 0 59303 2700.00000 0 15870422.458 18884818.766 -6249143.227 10 0 59303 3600.00000 0 16285816.660 19297188.232 -3111170.841 10 0 59303 4500.00000 0 16484153.314 19373925.366 87708.784 10 0 59303 5400.00000 0 16420105.299 19145184.713 3284865.641 10 0 59303 6300.00000 0 16057047.339 18651251.419 6417654.767 10 0 59303 7200.00000 0 15368831.544 17940668.747 9424677.373 10 0 59303 8100.00000 0 14341126.851 17068026.369 12247017.823 10 0 59303 9000.00000 0 12972262.696 16091506.304 14829428.746 10 0 59303 9900.00000 0 11273539.348 15070294.125 17121437.842 10 0 59303 10800.00000 0 9268991.080 14061968.748 19078352.255 10 0 59303 11700.00000 0 6994612.604 13119984.512 20662139.239 10 0 59303 12600.00000 0 4497082.837 12291354.443 21842165.192 10 0 59303 13500.00000 0 1832041.715 11614633.847 22595778.992 10 0 59303 14400.00000 0 -938005.255 11118289.379 22908729.557 10 0 59303 15300.00000 0 -3746064.646 10819521.051 22775411.498 10 0 59303 16200.00000 0 -6523213.760 10723584.425 22198936.765 10 0 59303 17100.00000 0 -9201232.589 10823638.259 21191033.871 10 0 59303 18000.00000 0 -11715199.266 11101120.242 19771779.738 10 0 59303 18900.00000 0 -14005942.117 11526631.159 17969172.371 10 0 59303 19800.00000 0 -16022248.515 12061286.726 15818555.252 10 0 59303 20700.00000 0 -17722741.651 12658477.299 13361906.872 10 0 59303 21600.00000 0 -19077351.050 13265959.442 10647010.696 10 0 59303 22500.00000 0 -20068319.826 13828190.363 7726522.577 10 0 59303 23400.00000 0 -20690710.890 14288807.134 4656953.952 10 0 59303 24300.00000 0 -20952395.000 14593147.460 1497590.054 10 0 59303 25200.00000 0 -20873524.349 14690707.814 -1690637.041 10 0 59303 26100.00000 0 -20485516.044 14537437.934 -4846300.277 10 0 59303 27000.00000 0 -19829589.198 14097777.685 -7908634.230 10 0 59303 27900.00000 0 -18954916.953 13346353.022 -10818676.568 10 0 59303 28800.00000 0 -17916469.763 12269261.578 -13520374.818 10 0 59303 29700.00000 0 -16772638.381 10864894.806 -15961639.749 10 0 59303 30600.00000 0 -15582733.495 9144262.020 -18095327.532 10 0 59303 31500.00000 0 -14404463.916 7130801.394 -19880133.799 10 0 59303 32400.00000 0 -13291496.116 4859683.265 -21281384.106 10 0 59303 33300.00000 0 -12291194.966 2376631.215 -22271706.520 10 0 59303 34200.00000 0 -11442638.680 -263694.178 -22831573.621 10 0 59303 35100.00000 0 -10774990.479 -2999686.309 -22949702.887 10 0 59303 36000.00000 0 -10306295.650 -5765080.087 -22623306.334 10 0 59303 36900.00000 0 -10042755.999 -8491445.028 -21858182.384 10 0 59303 37800.00000 0 -9978514.572 -11110783.581 -20668645.354 10 0 59303 38700.00000 0 -10095962.834 -13558128.870 -19077290.634 10 0 59303 39600.00000 0 -10366560.763 -15774034.502 -17114596.601 10 0 59303 40500.00000 0 -10752138.642 -17706852.288 -14818367.620 10 0 59303 41400.00000 0 -11206628.319 -19314701.217 -12233025.861 10 0 59303 42300.00000 0 -11678152.662 -20567042.761 -9408763.434 10 0 59303 43200.00000 0 -12111385.419 -21445793.494 -6400569.876 10 0 59303 44100.00000 0 -12450080.846 -21945925.260 -3267153.512 10 0 59303 45000.00000 0 -12639663.896 -22075524.886 -69778.502 10 0 59303 45900.00000 0 -12629768.009 -21855309.051 3128957.948 10 0 59303 46800.00000 0 -12376608.979 -21317614.006 6266381.757 10 0 59303 47700.00000 0 -11845089.987 -20504903.253 9281003.566 10 0 59303 48600.00000 0 -11010544.512 -19467857.939 12113757.548 10 0 59303 49500.00000 0 -9860039.720 -18263133.449 14709189.681 10 0 59303 50400.00000 0 -8393182.616 -16950880.459 17016568.923 10 0 59303 51300.00000 0 -6622393.447 -15592138.934 18990897.081 10 0 59303 52200.00000 0 -4572634.495 -14246218.635 20593795.945 10 0 59303 53100.00000 0 -2280606.611 -12968179.572 21794253.591 10 0 59303 54000.00000 0 206551.075 -11806520.504 22569215.614 10 0 59303 54900.00000 0 2833001.489 -10801173.447 22904011.000 10 0 59303 55800.00000 0 5536314.667 -9981887.925 22792606.339 10 0 59303 56700.00000 0 8249847.395 -9367070.870 22237686.051 10 0 59303 57600.00000 0 10905296.590 -8963127.877 21250560.054 10 0 59303 58500.00000 0 13435319.209 -8764329.688 19850903.716 10 0 59303 59400.00000 0 15776109.927 -8753205.290 18066338.170 10 0 59303 60300.00000 0 17869830.731 -8901440.994 15931861.743 10 0 59303 61200.00000 0 19666793.630 -9171244.016 13489145.776 10 0 59303 62100.00000 0 21127308.933 -9517110.306 10785710.083 10 0 59303 63000.00000 0 22223125.932 -9887920.355 7873994.951 10 0 59303 63900.00000 0 22938409.908 -10229274.010 4810348.005 10 0 59303 64800.00000 0 23270218.691 -10485966.310 1653945.104 10 0 59303 65700.00000 0 23228462.282 -10604501.383 -1534334.903 10 0 59303 66600.00000 0 22835349.842 -10535540.580 -4693061.325 10 0 59303 67500.00000 0 22124348.849 -10236184.160 -7761408.512 10 0 59303 68400.00000 0 21138700.444 -9671992.967 -10680298.545 10 0 59303 69300.00000 0 19929552.475 -8818667.147 -13393510.190 10 0 59303 70200.00000 0 18553786.735 -7663312.803 -15848735.347 10 0 59303 71100.00000 0 17071628.831 -6205243.753 -17998565.135 10 0 59303 72000.00000 0 15544137.791 -4456284.114 -19801388.679 10 0 59303 72900.00000 0 14030677.299 -2440557.064 -21222188.996 10 0 59303 73800.00000 0 12586471.441 -193765.455 -22233221.694 10 0 59303 74700.00000 0 11260344.904 2238009.601 -22814563.624 10 0 59303 75600.00000 0 10092740.667 4799946.774 -22954520.442 10 0 59303 76500.00000 0 9114097.655 7430495.770 -22649883.808 10 0 59303 77400.00000 0 8343656.963 10063682.586 -21906031.116 10 0 59303 78300.00000 0 7788748.291 12631616.769 -20736863.010 10 0 59303 79200.00000 0 7444588.988 15067099.234 -19164576.618 10 0 59303 80100.00000 0 7294607.150 17306223.540 -17219275.394 10 0 59303 81000.00000 0 7311278.256 19290862.468 -14938419.750 10 0 59303 81900.00000 0 7457442.861 20970934.966 -12366126.034 10 0 59303 82800.00000 0 7688051.849 22306356.407 -9552325.173 10 0 59303 83700.00000 0 7952266.525 23268587.473 -6551795.843 10 0 59303 84600.00000 0 8195824.461 23841713.333 -3423090.518 10 0 59303 85500.00000 0 8363569.418 24023004.504 -227376.110 99